GPS BIIR-9 (PRN 21)

Last updated on Thu Dec 26 2024 00:03:09 GMT+0000 (Coordinated Universal Time)

1 27704U 03010A 24360.41689359 -.00000082 00000+0 00000+0 0 9993 2 27704 55.0530 346.0665 0259272 332.6003 83.4723 2.00569726159306
UTC large
Height (km)
Speed (km/s)
/
Latitude / Longitude
Inclination (degrees)
Orbital Period (minutes)
Azimuth
Elevation
Range (km)
Doppler Factor

Next 0 passes for location: London (51.5072 / 0.1276)

Sorry there are no passes over London.